Wind_Speed
24 25 25 25 26 26 26 27 28 29 29 29 30 31 31 31 31 31 31 32 32 33 33 33 33 33 33 32 32 33 33 33 33 34 35 36 37 37
24 25 25 25 26 26 27 27 28 29 29 30 30 31 31 31 31 31 31 31 31 32 31 31 31 32 32 33 33 32 33 33 34 34 35 36 37 38
23 24 25 26 26 26 27 28 28 29 29 29 30 30 30 31 30 30 30 31 31 31 31 31 32 32 31 32 33 33 33 33 34 34 34 35 37 38
23 24 25 26 26 27 27 27 28 28 29 29 29 29 29 29 30 29 29 30 30 30 30 30 31 31 31 31 32 32 33 33 34 34 34 35 36 37
22 24 25 25 26 27 27 27 27 27 28 29 29 29 29 29 28 28 29 30 30 29 30 30 30 30 30 30 31 32 32 32 33 34 35 35 35 36
21 23 23 24 25 26 26 26 26 26 27 27 28 29 29 29 28 28 29 29 29 29 30 30 29 29 29 29 30 31 32 32 32 33 33 34 36 36
19 20 21 22 23 24 24 24 24 25 26 26 27 27 27 28 27 27 28 28 29 29 29 30 30 30 30 29 29 30 32 32 33 33 33 33 34 35
19 19 20 20 21 22 22 23 23 24 25 26 26 26 26 27 26 25 27 28 29 29 29 29 30 31 31 31 31 31 32 33 34 34 35 34 34 35
18 19 20 21 21 21 21 22 23 24 24 24 24 23 24 25 26 26 27 29 29 29 30 29 29 30 31 32 32 32 32 33 34 34 35 36 36 36
19 20 20 21 21 21 21 22 22 22 23 23 22 23 24 25 26 26 26 27 28 29 29 29 30 29 29 30 30 31 32 33 34 34 35 36 37 38
20 20 20 21 21 22 22 22 22 23 23 23 22 22 23 24 25 25 26 26 26 27 28 29 30 31 30 30 30 31 32 33 34 34 35 36 37 38
19 20 20 20 21 21 21 21 21 21 21 21 22 22 23 24 25 26 26 26 27 28 28 29 30 31 31 31 31 31 31 32 34 34 35 36 37 37
18 19 19 19 19 20 20 20 20 20 20 21 22 22 23 23 24 25 27 28 28 28 28 28 29 31 32 32 32 31 31 32 33 34 34 35 36 37
18 19 19 18 18 19 19 19 19 19 20 21 21 22 22 22 23 24 26 26 26 26 26 27 27 29 30 31 31 31 31 32 33 34 35 35 36 37
19 19 19 19 18 18 18 18 18 19 19 19 20 21 22 22 23 23 24 25 25 26 26 26 27 27 28 29 29 29 30 30 30 31 32 33 34 35
18 19 19 18 18 17 17 17 18 18 19 19 20 21 21 21 21 21 22 23 25 26 25 26 26 26 27 27 28 29 29 30 30 30 30 30 31 32
18 18 19 19 18 18 18 18 17 17 17 18 19 19 19 19 19 19 20 21 21 22 23 23 24 25 25 26 26 27 28 29 29 29 29 29 30 31
18 18 19 19 18 18 18 17 17 18 18 18 18 18 18 18 18 19 19 19 20 20 21 21 22 23 24 24 25 26 27 27 27 27 28 28 29 30
18 18 18 17 17 17 17 16 17 17 18 18 18 18 17 18 18 18 18 19 19 19 19 20 21 22 23 23 24 24 24 24 24 25 26 27 27 28
18 18 18 18 17 17 17 17 17 17 17 17 17 17 18 18 18 18 18 18 18 18 19 20 21 21 21 21 21 21 22 22 23 24 24 25 26 27
19 18 18 18 18 17 17 17 16 16 16 16 16 17 17 17 17 18 17 17 17 17 17 17 17 18 18 18 19 19 20 21 21 22 23 24 25 25
18 18 18 17 17 17 17 17 16 16 16 16 16 16 16 16 16 16 15 15 15 15 15 15 16 16 17 17 18 18 19 19 19 19 20 20 21 22
19 19 18 18 17 17 16 16 15 15 16 16 15 15 14 14 14 14 13 13 13 13 14 14 15 15 16 16 16 17 17 17 17 18 18 18 18 19
Wind_Direction
264 265 266 267 265 265 264 262 260 259 260 260 261 263 263 263 263 262 260 258 258 258 258 257 256 255 254 253 253 252 250 250 250 250 248 247 246 245
267 265 265 266 266 266 266 263 262 263 263 263 263 264 264 264 264 264 261 259 258 258 259 258 257 256 254 253 253 252 251 250 250 250 249 248 246 245
268 266 265 267 267 268 266 264 264 265 266 266 265 264 265 265 266 265 262 259 257 258 259 258 257 256 255 254 252 250 250 250 250 250 249 247 246 244
268 266 266 267 267 267 268 267 265 265 266 269 267 265 265 266 266 264 261 260 257 257 258 257 257 257 255 254 254 252 251 251 251 250 249 248 246 244
269 268 269 268 268 268 268 267 266 267 268 270 269 267 266 266 267 264 261 260 257 257 257 258 257 256 254 254 253 253 252 252 252 252 251 249 247 246
273 273 271 270 269 270 268 268 268 269 270 271 270 269 266 264 265 263 260 259 258 258 258 257 257 256 255 254 254 253 252 252 253 254 253 251 250 249
277 276 273 273 273 271 270 270 270 271 271 270 271 268 265 263 263 261 258 257 257 259 258 256 256 256 256 255 255 253 253 253 253 253 253 252 251 249
281 279 276 276 276 273 272 273 274 274 273 271 271 267 265 263 263 262 258 256 258 258 258 256 255 255 256 256 256 255 255 254 254 254 253 251 250 249
289 285 281 279 277 274 274 274 274 275 275 273 272 266 265 264 264 263 261 258 257 257 258 257 256 256 256 257 257 256 255 255 255 255 254 252 250 250
293 292 288 286 282 281 281 280 278 277 277 276 272 268 266 265 264 263 262 261 259 258 259 260 259 258 258 258 258 258 257 256 255 253 253 252 252 251
296 294 291 289 285 283 283 281 279 277 276 273 272 270 269 268 266 265 265 264 263 262 261 262 262 263 262 261 259 259 258 256 255 255 255 254 253 252
300 299 296 293 289 286 283 282 280 278 276 274 274 273 272 269 266 265 266 266 266 266 265 263 263 264 265 263 262 261 259 258 257 256 256 256 255 253
304 304 302 299 294 289 286 284 281 279 277 276 275 275 274 272 270 269 268 268 267 266 266 266 265 265 265 264 263 262 260 260 260 258 257 256 254 253
310 307 306 305 299 293 288 288 286 283 283 282 280 279 276 273 273 271 270 269 268 267 267 267 267 266 264 264 263 263 263 263 261 260 260 259 257 256
314 312 310 307 303 299 295 291 288 286 286 285 285 283 280 276 275 275 274 273 270 268 268 269 269 268 266 264 264 264 263 262 262 262 262 261 260 258
312 313 313 312 308 303 300 296 291 289 288 286 287 286 282 278 277 277 277 275 271 269 268 269 269 269 267 265 264 263 264 265 264 263 263 262 260 260
315 314 314 314 312 307 303 299 295 292 290 287 286 286 283 281 280 280 278 277 275 271 269 269 267 266 265 266 267 266 266 267 267 265 263 263 261 260
317 316 314 313 311 307 302 298 295 294 292 290 289 290 289 288 283 279 279 278 275 272 270 269 268 267 267 268 268 267 267 267 266 264 264 263 262 261
320 318 317 316 314 311 307 303 298 296 293 290 290 292 293 292 290 284 279 277 276 273 271 270 272 273 272 271 268 267 267 265 263 264 265 263 262 261
321 318 317 315 314 313 310 307 303 299 297 295 292 289 290 292 293 290 283 279 276 274 273 274 274 275 274 272 269 268 266 266 264 263 264 263 262 262
320 317 316 314 312 312 311 309 306 304 300 298 296 293 291 291 291 291 288 283 278 276 276 276 275 275 273 272 272 269 267 267 267 267 266 264 263 262
322 320 318 316 315 314 312 310 307 305 303 299 297 295 291 289 289 290 289 287 281 278 277 278 277 275 274 272 270 267 266 266 268 267 265 266 266 265
325 323 322 320 319 318 316 314 311 308 306 302 301 299 294 290 291 291 292 293 291 285 283 282 279 277 274 271 270 269 268 266 266 270 271 268 269 270
Height
5739 5739 5739 5739 5739 5739 5739 5739 5740 5740 5741 5741 5741 5741 5741 5741 5741 5741 5742 5742 5743 5743 5744 5745 5746 5748 5749 5750 5752 5753 5755 5757 5759 5761 5763 5766 5769 5772
5731 5731 5731 5731 5731 5731 5731 5731 5731 5732 5732 5732 5732 5732 5732 5732 5732 5732 5732 5732 5733 5733 5734 5735 5736 5738 5739 5741 5743 5744 5746 5747 5749 5752 5754 5756 5759 5762
5724 5724 5724 5724 5724 5723 5723 5723 5723 5723 5723 5724 5723 5723 5723 5723 5723 5723 5722 5723 5724 5725 5725 5726 5727 5728 5730 5731 5733 5735 5736 5738 5740 5742 5744 5747 5749 5753
5717 5717 5717 5716 5716 5716 5716 5716 5715 5715 5715 5715 5714 5714 5714 5714 5714 5714 5714 5714 5715 5716 5716 5717 5718 5719 5721 5722 5724 5725 5727 5729 5731 5733 5735 5738 5740 5743
5710 5710 5710 5709 5709 5709 5708 5707 5707 5707 5707 5706 5706 5706 5706 5705 5705 5705 5705 5705 5706 5707 5708 5709 5710 5711 5712 5713 5715 5717 5718 5720 5722 5724 5726 5728 5731 5734
5704 5703 5703 5702 5702 5701 5700 5700 5699 5699 5698 5698 5698 5697 5697 5697 5696 5696 5697 5697 5698 5699 5700 5700 5702 5702 5703 5705 5706 5708 5709 5711 5713 5714 5716 5718 5721 5724
5698 5697 5696 5696 5695 5694 5693 5693 5692 5691 5690 5690 5689 5689 5688 5688 5688 5688 5688 5689 5690 5691 5692 5693 5693 5694 5695 5696 5697 5699 5700 5702 5704 5705 5707 5709 5711 5714
5693 5691 5690 5689 5688 5687 5686 5685 5685 5684 5683 5682 5681 5681 5680 5680 5680 5680 5680 5681 5682 5684 5683 5684 5685 5686 5687 5688 5689 5690 5691 5692 5694 5696 5698 5700 5702 5704
5687 5686 5684 5683 5681 5680 5679 5678 5677 5676 5675 5674 5673 5673 5673 5673 5672 5672 5672 5672 5673 5674 5674 5675 5676 5677 5678 5679 5680 5681 5682 5683 5685 5687 5688 5690 5692 5694
5682 5680 5678 5676 5675 5673 5672 5671 5670 5669 5668 5667 5666 5666 5665 5664 5664 5664 5664 5664 5665 5665 5665 5666 5667 5668 5669 5669 5670 5671 5673 5674 5675 5677 5679 5680 5682 5684
5676 5674 5672 5670 5668 5666 5665 5664 5663 5662 5660 5660 5659 5658 5657 5657 5656 5656 5656 5656 5656 5657 5657 5658 5658 5659 5659 5660 5661 5662 5663 5664 5666 5667 5669 5670 5672 5674
5670 5668 5666 5664 5661 5660 5658 5657 5656 5655 5653 5652 5651 5650 5650 5649 5648 5648 5648 5648 5648 5648 5649 5649 5649 5650 5650 5651 5651 5652 5653 5654 5656 5657 5658 5660 5661 5663
5665 5663 5660 5657 5655 5653 5651 5650 5649 5647 5646 5645 5644 5643 5642 5641 5640 5640 5640 5639 5639 5639 5640 5640 5640 5640 5641 5642 5642 5643 5643 5644 5645 5646 5648 5650 5651 5652
5660 5657 5654 5652 5649 5647 5645 5644 5642 5641 5639 5638 5637 5636 5634 5633 5632 5632 5631 5631 5630 5630 5631 5631 5631 5631 5631 5632 5633 5633 5633 5634 5635 5636 5637 5639 5640 5641
5655 5652 5649 5646 5644 5641 5639 5638 5636 5635 5633 5632 5630 5628 5627 5625 5624 5623 5622 5622 5622 5622 5622 5622 5622 5622 5623 5623 5623 5624 5624 5624 5625 5626 5627 5628 5629 5630
5650 5647 5644 5641 5638 5636 5634 5632 5630 5628 5626 5625 5623 5621 5619 5618 5616 5615 5614 5613 5613 5614 5613 5613 5614 5614 5614 5614 5615 5615 5615 5615 5616 5616 5617 5618 5619 5620
5645 5642 5639 5636 5633 5630 5628 5626 5624 5622 5620 5618 5616 5614 5612 5611 5609 5608 5607 5606 5606 5605 5605 5605 5605 5605 5606 5606 5606 5606 5606 5606 5606 5607 5608 5609 5609 5610
5640 5637 5634 5630 5628 5625 5622 5620 5618 5616 5614 5612 5609 5607 5605 5604 5603 5601 5600 5599 5599 5598 5598 5598 5598 5598 5598 5598 5598 5597 5597 5597 5597 5598 5598 5599 5600 5601
5636 5632 5629 5626 5623 5619 5617 5614 5612 5610 5608 5606 5603 5601 5600 5598 5596 5595 5594 5593 5592 5592 5591 5591 5590 5590 5590 5590 5589 5589 5588 5588 5589 5589 5589 5590 5590 5591
5631 5628 5625 5621 5618 5615 5612 5609 5607 5605 5602 5600 5598 5596 5594 5593 5591 5589 5588 5587 5586 5585 5585 5584 5584 5583 5582 5582 5582 5581 5581 5581 5581 5581 5581 5581 5581 5582
5627 5623 5620 5617 5614 5610 5607 5604 5602 5599 5597 5595 5593 5591 5589 5587 5586 5584 5583 5582 5581 5580 5579 5578 5577 5576 5575 5575 5575 5575 5574 5574 5574 5574 5573 5573 5573 5573
5622 5619 5616 5612 5609 5606 5603 5600 5597 5595 5592 5590 5588 5586 5584 5582 5581 5579 5578 5576 5575 5574 5573 5572 5571 5570 5569 5569 5569 5569 5568 5568 5567 5567 5567 5567 5566 5566
5618 5615 5611 5608 5605 5601 5598 5595 5593 5590 5587 5585 5583 5581 5579 5577 5576 5574 5573 5572 5570 5569 5568 5567 5566 5565 5564 5564 5563 5563 5562 5562 5561 5561 5561 5560 5560 5560